This demonstration page uses our WeatherBlox Daily Observations layout. Learn more.

Left ArrowRight Arrow

39.08367, -84.50855

Hourly Observations for April 14, 2017

Temp ( °F °C ) Dew Point ( °F °C ) Humidity (%) Winds ( mph kmh ) Pressure ( in mb ) Visibility ( mi km ) Precip ( " mm )
12:53 am 00:53 Mostly Clear 52 11.1 49 9.4 89 89 NE 3 6 30.23 1024 10 16.0934 0 0
1:53 am 01:53 Clear 51 10.6 50 10 96 96 Calm 30.22 1024 10 16.0934 0 0
2:53 am 02:53 Clear 48 8.9 48 8.9 100 100 Calm 30.22 1023 10 16.0934 0 0
3:53 am 03:53 Clear 49 9.4 47 8.3 93 93 Calm 30.21 1023 10 16.0934 0 0
4:53 am 04:53 Clear 48 8.9 47 8.3 96 96 Calm 30.21 1023 10 16.0934 0 0
5:53 am 05:53 Clear 49 9.4 47 8.3 93 93 Calm 30.22 1024 10 16.0934 0 0
6:53 am 06:53 Clear 47 8.3 47 8.3 100 100 Calm 30.23 1024 10 16.0934 0 0
7:53 am 07:53 Sunny 48 8.9 47 8.3 96 96 Calm 30.26 1025 9 14.48406 0 0
8:53 am 08:53 Sunny 55 12.8 49 9.4 80 80 Calm 30.27 1025 10 16.0934 0 0
9:53 am 09:53 Sunny 62 16.7 49 9.4 62 62 Calm 30.26 1025 10 16.0934 0 0
10:53 am 10:53 Sunny 66 18.9 51 10.6 59 59 Calm 30.26 1025 10 16.0934 0 0
11:53 am 11:53 Sunny 73 22.8 49 9.4 43 43 Calm 30.25 1025 10 16.0934 0 0
12:53 pm 12:53 Sunny 76 24.4 49 9.4 39 39 VRB 3 6 30.24 1024 10 16.0934 0 0
1:53 pm 13:53 Sunny 79 26.1 52 11.1 39 39 Calm 30.21 1023 10 16.0934 0 0
2:53 pm 14:53 Sunny 80 26.7 55 12.8 42 42 SW 3 6 30.2 1023 10 16.0934 0 0
3:53 pm 15:53 Sunny 82 27.8 51 10.6 34 34 Calm 30.17 1022 10 16.0934 0 0
4:53 pm 16:53 Sunny 81 27.2 55 12.8 41 41 VRB 3 6 30.16 1021 10 16.0934 0 0
5:53 pm 17:53 Sunny 77 25 57 13.9 50 50 S 5 7 30.16 1021 10 16.0934 0 0
6:53 pm 18:53 Sunny 78 25.6 53 11.7 42 42 SSE 3 6 30.15 1021 10 16.0934 0 0
7:53 pm 19:53 Sunny 70 21.1 61 16.1 73 73 Calm 30.15 1021 10 16.0934 0 0
8:53 pm 20:53 Clear 66 18.9 59 15 78 78 Calm 30.16 1021 10 16.0934 0 0
9:53 pm 21:53 Clear 63 17.2 58 14.4 84 84 Calm 30.16 1022 10 16.0934 0 0
10:53 pm 22:53 Clear 63 17.2 57 13.9 81 81 Calm 30.17 1022 10 16.0934 0 0
11:53 pm 23:53 Clear 59 15 57 13.9 93 93 Calm 30.17 1022 10 16.0934 0 0

Powered by AerisWeather